sat.trackr.live / text

‹ back to catalog

STARLINK-35188

NORAD 65522 · 2025-200C

PAYLOAD ACTIVE UNKNOWN

§ Identity

Operator
Country
US
Launch date
2025-09-06
Launch site
AFWTR
Launch vehicle
Mass (kg)
RCS (m²)

Purposes: comms

External: N2YO · Heavens-Above · Gunter

§ Orbital elements

Epoch: 2026-09-20T21:39:16.266240Z

Period
93.91 min
Inclination
97.2855°
Eccentricity
0.0000789
Mean motion
15.33446847 rev/d
Perigee alt
465.0 km
Apogee alt
466.1 km
Semi-major
6,843.7 km
B*
2.1706e-4
RAAN
330.2985°
Arg perigee
101.1918°
Mean anomaly
258.9413°
Rev number
5,870

§ Raw data

STARLINK-351881 65522U 25200C   26263.90227160  .00006939  00000+0  21706-3 0  99902 65522  97.2855 330.2985 0000789 101.1918 258.9413 15.33446847 58700

JSON: /api/v1/satellites/65522 · /tle

For live sub-satellite position, see the globe view (requires WebGL).

§ Visibility from observer

Set your observer location to see the next 7 days of passes ≥ 10°. The values pass through the URL so the page stays shareable.

No JS? Fill the form by hand. The geolocation button needs JavaScript.